Regional Weather Roundup
Issued by NWS

Home | Current Version | Previous Version | Graphics & Text | Print | Product List | Glossary Off
Versions: 1 2 3 4 5 6 7 8 9 10 11 12 13 14 15 16 17 18 19 20 21 22 23 24 25 26 27 28 29 30 31 32 33 34 35 36 37 38 39 40 41 42 43 44 45 46 47 48 49 50

000
ASUS43 KMPX 302301
RWRMN
WEATHER ROUNDUP FOR MINNESOTA
NATIONAL WEATHER SERVICE TWIN CITIES/CHANHASSEN MN
600 PM CDT THU OCT 30 2014


NOTE: "FAIR" INDICATES FEW OR NO CLOUDS BELOW 12,000 FEET WITH NO
SIGNIFICANT WEATHER AND/OR OBSTRUCTIONS TO VISIBILITY. N/A MEANS
CURRENT SKY AND/OR WEATHER CONDITIONS ARE NOT AVAILABLE.

MNZ060>063-068>070-310000-
   Twin Cities Metro

CITY           SKY/WX    TMP DP  RH WIND       PRES   REMARKS
TWIN CITIES    CLOUDY    44  34  67 NW14G26   30.17R
ST PAUL        CLOUDY    44  35  70 NW18      30.18R
CRYSTAL        CLOUDY    45  33  63 N14       30.17R
BLAINE         CLOUDY    45  36  70 NW13G18     N/A
LAKEVILLE      CLOUDY    45  36  70 NW15G21   30.15R
EDEN PRAIRIE   CLOUDY    44  34  67 N15G24    30.16R
SOUTH ST PAUL  CLOUDY    45  35  67 N15G24    30.16R
LAKE ELMO      CLOUDY    43  34  70 N12G22    30.17R
$$
MNZ001>005-007-008-013>017-022>024-027-028-310000-
   Northwest Minnesota

CITY           SKY/WX    TMP DP  RH WIND       PRES   REMARKS
BEMIDJI        MOCLDY    32  17  53 N18G24    30.31R WCI  21
HALLOCK        CLEAR     34  23  64 N15G23    30.45R WCI  24
ROSEAU         CLEAR     34  18  51 N17G25    30.40R WCI  23
WARROAD        PTCLDY    32  18  55 N14G20    30.39R WCI  22
THIEF RVR FALL PTCLDY    34  19  55 N17G24    30.40R WCI  23
CROOKSTON      PTCLDY    36  21  55 N21G28    30.43R
FOSSTON        CLOUDY    32  21  64 N16G29    30.37R WCI  21
DETROIT LAKES  CLOUDY    34  25  69 N22G29    30.36R WCI  22
MOORHEAD       MOCLDY    36  27  69 N20       30.41R
PARK RAPIDS    PTCLDY    33  20  58 NW16      30.29R WCI  23
MAHNOMEN       CLOUDY    33  22  64 N17       30.35R WCI  22
$$
MNZ006-009>011-018-025>026-310000-
   North Central Minnesota

CITY           SKY/WX    TMP DP  RH WIND       PRES   REMARKS
BAUDETTE       CLEAR     31  17  56 N16G26    30.34R WCI  20
FLAG ISLAND    PTCLDY    34  19  55 N28G33    30.37R WCI  20
INTL FALLS     CLEAR     28  21  75 N17G25    30.28R WCI  16
WASKISH        CLEAR     32  18  55 NW13G25   30.33R WCI  22
BIG FORK       MOCLDY    34  16  47 N18G32    30.26R WCI  23
LONGVILLE      MOCLDY    36  19  51 NW14G25   30.26R
GRAND RAPIDS   MOCLDY    34  19  55 N30G38    30.21R WCI  20
CRANE LAKE     CLOUDY    28  25  86 N14G28    30.23R WCI  17
ORR            MOCLDY    28  23  80 NW9G20    30.20R WCI  20
COOK           LGT SNOW  30  27  86 N14G28    30.21R WCI  20
WALKER         MOCLDY    33  16  48 N17G26    30.27R WCI  22
$$
MNZ012-019>021-037-310000-
   Northeast Minnesota

CITY           SKY/WX    TMP DP  RH WIND       PRES   REMARKS
DULUTH         MOCLDY    38  27  64 NW23G31   30.12R
ELY            LGT SNOW  30  28  93 NW15G32   30.13R WCI  19
HIBBING        CLOUDY    33  23  66 N23G35    30.19R WCI  21
EVELETH        MIX PCPN  32  30  93 NW14G22   30.18R WCI  22
DULUTH HARBOR  PTCLDY    43  34  70 W15       30.15R
TWO HARBORS    MIX PCPN  37  34  87 N5G17     30.10R
SILVER BAY     DRIZZLE   37  32  81 N8        30.08R
GRAND MARAIS     N/A     38  28  67 NW8       30.05R
G MARAIS ARPRT PTCLDY    30  25  80 NW7       30.02S WCI  23
$$
MNZ029>031-032-039>041-046>048-054>057-064-310000-
   West Central Minnesota

CITY           SKY/WX    TMP DP  RH WIND       PRES   REMARKS
FERGUS FALLS   CLOUDY    34  23  64 N23G36    30.37R WCI  22
WHEATON        CLOUDY    34  27  75 NW21G26   30.40R WCI  22
MORRIS         CLOUDY    36  28  75 N30G36    30.32R
ALEXANDRIA     CLOUDY    37  27  67 N18G32    30.28R
ELBOW LAKE     CLOUDY    35  27  74 N21G29    30.33R WCI  23
WADENA         CLOUDY    34  25  69 N17G25    30.29R WCI  23
GLENWOOD       CLOUDY    37  30  75 NW17      30.27R
APPLETON       CLOUDY    37  30  75 N28G33    30.33R
BENSON         CLOUDY    39  30  70 N23       30.30R
ORTONVILLE     CLOUDY    36  28  75 N26G35    30.35R
MADISON        CLOUDY    41  34  75 N23G31    30.33R
WILLMAR        CLOUDY    41  30  65 N22       30.27R
$$
MNZ033>034-036-042>043-049>051-058-059-310000-
   Central Minnesota

CITY           SKY/WX    TMP DP  RH WIND       PRES   REMARKS
ST CLOUD       CLOUDY    43  30  60 NW17G25   30.21R
SAUK CENTRE    CLOUDY    38  28  67 NW24G30   30.26R
PAYNESVILLE    CLOUDY    37  29  70 NW14G22   30.25R
AITKIN         MIX PCPN  37  30  75 NW13G25   30.20R
PINE RIVER     MOCLDY    36  25  64 NW15G24   30.29R
BRAINERD       CLOUDY    37  27  67 NW20G28   30.24R
STAPLES        CLOUDY    36  25  64 NW21G29   30.27R
LONG PRAIRIE   CLOUDY    36  27  69 NW16G28   30.26R
LITTLE FALLS   CLOUDY    37  28  70 NW5G16    30.24R
LITCHFIELD     CLOUDY    43  34  70 N14G23    30.23R
BUFFALO        CLOUDY    43  32  65 NW13G18   30.21R
MAPLE LAKE     CLOUDY    43  34  69 NW10G20   30.21R
$$
MNZ037-044-045-052-053-310000-
   East Central Minnesota

CITY           SKY/WX    TMP DP  RH WIND       PRES   REMARKS
PRINCETON      CLOUDY    43  30  61 NW20G25   30.20R
MORA           CLOUDY    37  30  75 NW16G24   30.20R
CAMBRIDGE      CLOUDY    45  30  57 NW20G28   30.17R
RUSH CITY      CLOUDY    41  31  66 NW13G18   30.18R
MOOSE LAKE     MOCLDY    37  32  81 NW8G16    30.15R
HINCKLEY       CLOUDY    37  32  81 NW10G17   30.18R
CLOQUET        LGT SNOW  36  30  80 NW17G32   30.15R
MCGREGOR       CLOUDY    34  32  93 NW15G26   30.20R WCI  24
$$
MNZ071>073-080-081-089-090-097-098-310000-
   Southwest Minnesota

CITY           SKY/WX    TMP DP  RH WIND       PRES   REMARKS
MONTEVIDEO     CLOUDY    39  34  81 N22G28    30.30R
GRANITE FALLS  CLOUDY    40  32  73 NW17G23   30.30R
CANBY          CLOUDY    38  32  81 N21G29    30.33R
MARSHALL       CLOUDY    39  28  65 N24G33    30.28R
REDWOOD FALLS  CLOUDY    44  34  67 N20G31    30.23R
OLIVIA         CLOUDY    43  32  65 N21       30.24R
PIPESTONE      CLOUDY    39  34  81 N18G25    30.27R
WINDOM         CLOUDY    45  37  76 NW24      30.21R
WORTHINGTON    CLOUDY    43  36  75 N25       30.23R
JACKSON        CLOUDY    45  37  76 N20G32    30.20R
TRACY          CLOUDY    41  34  76 N25G32    30.27R
SLAYTON        CLOUDY    40  34  81 N23G32    30.26R
$$
MNZ065>067-074>077-082>085-091>093-310000-
   South Central Minnesota

CITY           SKY/WX    TMP DP  RH WIND       PRES   REMARKS
MANKATO        MOCLDY    46  34  61 N20       30.17R
NEW ULM        CLEAR     45  37  76 N9        30.19R
ST JAMES       MOCLDY    46  37  71 NW17G24   30.20R
FAIRMONT       CLOUDY    46  32  57 NW17G25   30.17R
GLENCOE        CLOUDY    45  36  69 NW14G22   30.19R
FARIBAULT      CLOUDY    46  36  66 NW10G17   30.15R
OWATONNA       CLEAR     48  36  61 NW12      30.14R
WASECA         CLOUDY    45  32  61 NW12G20   30.16R
ALBERT LEA     CLOUDY    48  36  61 NW7       30.13R
$$
MNZ078>079-086>088-094>096-310000-
   Southeast Minnesota

CITY           SKY/WX    TMP DP  RH WIND       PRES   REMARKS
ROCHESTER      CLOUDY    45  37  73 NW6       30.12R
RED WING       CLOUDY    46  34  61 N7        30.13R
STANTON        CLOUDY    47  37  66 NW10      30.13R
DODGE CENTER   CLOUDY    45  37  76 NW8       30.12R
WINONA         CLOUDY    48  41  76 CALM      30.10R
AUSTIN         CLOUDY    46  36  66 N7        30.12R
PRESTON        CLOUDY    44  37  76 NW6       30.10R
$$
ABBREVIATIONS USED IN REMARKS
   TC - TEMPERATURES IN CELSIUS
  WCI - WIND CHILL INDEX
   HX - HEAT INDEX
  VSB - VISIBILITY
$$



USA.gov is the U.S. government's official web portal to all federal, state and local government web resources and services.